Weather History for Lakeville, MN

Change the Weather History Date:

Saturday, January 19, 2013

  Actual Average Record
Temperature  
Mean Temperature 19 °F -  
Max Temperature 37 °F 22 °F 45 °F (1981)
Min Temperature 1 °F 3 °F -35 °F (1970)
Degree Days  
Heating Degree Days 46    
Moisture  
Dew Point 18 °F    
Average Humidity 82    
Maximum Humidity 100    
Minimum Humidity 63    
Precipitation  
Precipitation 0.00 in - - ()
Sea Level Pressure  
Sea Level Pressure 29.85 in    
Wind  
Wind Speed 10 mph (West)    
Max Wind Speed 41 mph    
Max Gust Speed 52 mph    
Visibility 10 miles    
Events      
Averages and records for this station are not official NWS values.
T = Trace of Precipitation, MM = Missing Value Source: NWS Daily Summary

Daily Weather History Graph

Daily Weather History Graph

Search for Another Location

Airport:

Trip Planner

Search our weather history database for the weather conditions in past years. The results will help you decide how hot, cold, wet, or windy it might be!

Date:

Astronomy

Jan. 19, 2013 Rise Set
Actual Time 7:43 AM CST 5:04 PM CST
Civil Twilight 7:11 AM CST 5:36 PM CST
Nautical Twilight 6:35 AM CST 6:12 PM CST
Astronomical Twilight 6:00 AM CST 6:47 PM CST
Moon 11:33 AM CST (1/19) 1:14 AM CST (1/19)
Length of Visible Light 10h 24m
Length of Day
9h 20m
First Quarter, 57% of the Moon is Illuminated
Jan 19
First Quarter
Jan 26
Full
Feb 3
Last Quarter
Feb 10
New
Feb 17
First Quarter

Hourly Weather History & Observations

Time (CST) Temp. Windchill Dew Point Humidity Pressure Visibility Wind Dir Wind Speed Gust Speed Precip Events Conditions
12:09 AM 28.4 °F - 26.6 °F 93% 29.79 in 10.0 mi Calm Calm - N/A   Clear
12:29 AM 28.4 °F 24.6 °F 26.6 °F 93% 29.78 in 10.0 mi SSW 3.5 mph - N/A   Clear
12:50 AM 28.4 °F - 26.6 °F 93% 29.77 in 10.0 mi Calm Calm - N/A   Clear
1:09 AM 28.4 °F - 26.6 °F 93% 29.76 in 10.0 mi Calm Calm - N/A   Clear
1:29 AM 26.6 °F - 24.8 °F 93% 29.76 in 10.0 mi Calm Calm - N/A   Clear
1:50 AM 26.6 °F 21.2 °F 26.6 °F 100% 29.76 in 10.0 mi SSE 4.6 mph - N/A   Clear
2:09 AM 26.6 °F 20.0 °F 26.6 °F 100% 29.76 in 10.0 mi South 5.8 mph - N/A   Clear
2:29 AM 26.6 °F - 24.8 °F 93% 29.76 in 10.0 mi Calm Calm - N/A   Clear
2:49 AM 26.6 °F - 24.8 °F 93% 29.76 in 10.0 mi Calm Calm - N/A   Clear
3:09 AM 28.4 °F - 26.6 °F 93% 29.75 in 10.0 mi Calm Calm - N/A   Clear
3:29 AM 26.6 °F - 26.6 °F 100% 29.73 in 10.0 mi Calm Calm - N/A   Clear
3:49 AM 28.4 °F - 26.6 °F 93% 29.72 in 10.0 mi Calm Calm - N/A   Clear
4:09 AM 28.4 °F - 26.6 °F 93% 29.72 in 10.0 mi Calm Calm - N/A   Clear
4:29 AM 28.4 °F 23.3 °F 26.6 °F 93% 29.70 in 10.0 mi South 4.6 mph - N/A   Clear
4:49 AM 28.4 °F - 28.4 °F 100% 29.71 in 10.0 mi Calm Calm - N/A   Clear
5:09 AM 28.4 °F 24.6 °F 26.6 °F 93% 29.69 in 10.0 mi South 3.5 mph - N/A   Clear
5:29 AM 28.4 °F - 26.6 °F 93% 29.69 in 10.0 mi Calm Calm - N/A   Clear
5:49 AM 30.2 °F - 28.4 °F 93% 29.70 in 10.0 mi Calm Calm - N/A   Scattered Clouds
6:09 AM 28.4 °F - 26.6 °F 93% 29.71 in 10.0 mi Calm Calm - N/A   Clear
6:29 AM 28.4 °F - 26.6 °F 93% 29.70 in 10.0 mi Calm Calm - N/A   Clear
6:49 AM 28.4 °F - 26.6 °F 93% 29.68 in 10.0 mi Calm Calm - N/A   Clear
7:09 AM 26.6 °F - 26.6 °F 100% 29.68 in 10.0 mi Calm Calm - N/A   Clear
7:29 AM 26.6 °F 22.6 °F 26.6 °F 100% 29.68 in 10.0 mi SSW 3.5 mph - N/A   Clear
7:49 AM 32.0 °F 24.2 °F 28.4 °F 87% 29.69 in 10.0 mi West 9.2 mph - N/A   Clear
8:09 AM 33.8 °F 26.4 °F 28.4 °F 81% 29.70 in 10.0 mi West 9.2 mph - N/A   Clear
8:29 AM 33.8 °F 25.8 °F 28.4 °F 81% 29.70 in 10.0 mi West 10.4 mph - N/A   Clear
8:49 AM 33.8 °F 26.4 °F 28.4 °F 81% 29.71 in 10.0 mi West 9.2 mph - N/A   Scattered Clouds
9:09 AM 33.8 °F 24.8 °F 28.4 °F 81% 29.72 in 10.0 mi West 12.7 mph - N/A   Scattered Clouds
9:29 AM 33.8 °F 25.3 °F 28.4 °F 81% 29.71 in 10.0 mi West 11.5 mph 18.4 mph N/A   Scattered Clouds
9:49 AM 35.6 °F 26.6 °F 28.4 °F 75% 29.72 in 10.0 mi West 13.8 mph 20.7 mph N/A   Clear
10:09 AM 35.6 °F 25.9 °F 28.4 °F 75% 29.72 in 10.0 mi West 16.1 mph 20.7 mph N/A   Scattered Clouds
10:29 AM 35.6 °F 25.5 °F 28.4 °F 75% 29.73 in 10.0 mi West 17.3 mph - N/A   Scattered Clouds
10:49 AM 33.8 °F 24.3 °F 28.4 °F 81% 29.73 in 10.0 mi West 13.8 mph - N/A   Clear
11:09 AM 35.6 °F 25.2 °F 28.4 °F 75% 29.74 in 10.0 mi West 18.4 mph 21.9 mph N/A   Scattered Clouds
11:29 AM 35.6 °F 25.9 °F 28.4 °F 75% 29.73 in 10.0 mi WNW 16.1 mph 23.0 mph N/A   Clear
11:49 AM 35.6 °F 26.2 °F 28.4 °F 75% 29.73 in 10.0 mi West 15.0 mph - N/A   Clear
12:09 PM 35.6 °F 26.6 °F 28.4 °F 75% 29.72 in 10.0 mi West 13.8 mph - N/A   Clear
12:29 PM 37.4 °F 26.1 °F 28.4 °F 70% 29.71 in 10.0 mi WNW 24.2 mph 28.8 mph N/A   Clear
12:49 PM 37.4 °F 26.6 °F 30.2 °F 75% 29.72 in 10.0 mi WNW 21.9 mph 29.9 mph N/A   Scattered Clouds
1:49 PM 35.6 °F 25.2 °F 28.4 °F 75% 29.73 in 10.0 mi WNW 18.4 mph 29.9 mph N/A   Mostly Cloudy
2:09 PM 35.6 °F 25.2 °F 30.2 °F 81% 29.73 in 10.0 mi West 18.4 mph 25.3 mph N/A   Overcast
2:29 PM 35.6 °F 24.0 °F 30.2 °F 81% 29.74 in 10.0 mi West 23.0 mph 27.6 mph N/A   Overcast
2:49 PM 33.8 °F 20.1 °F 28.4 °F 81% 29.76 in 10.0 mi WNW 29.9 mph 43.7 mph N/A   Mostly Cloudy
3:09 PM 30.2 °F 14.7 °F 24.8 °F 80% 29.77 in 10.0 mi WNW 32.2 mph 41.4 mph N/A   Scattered Clouds
3:29 PM 26.6 °F 9.3 °F 17.6 °F 69% 29.80 in 10.0 mi WNW 34.5 mph 42.6 mph N/A   Scattered Clouds
3:49 PM 21.2 °F 1.9 °F 12.2 °F 68% 29.82 in 10.0 mi WNW 34.5 mph 48.3 mph N/A   Clear
4:09 PM 17.6 °F -4.5 °F 8.6 °F 68% 29.85 in 10.0 mi WNW 41.4 mph 51.8 mph N/A   Clear
4:29 PM 17.6 °F -1.6 °F 6.8 °F 63% 29.89 in 10.0 mi WNW 28.8 mph 48.3 mph N/A   Clear
4:49 PM 15.8 °F -4.1 °F 6.8 °F 68% 29.92 in 10.0 mi WNW 28.8 mph 40.3 mph N/A   Clear
5:09 PM 15.8 °F -5.8 °F 6.8 °F 68% 29.92 in 10.0 mi WNW 35.7 mph 43.7 mph N/A   Scattered Clouds
5:29 PM 12.2 °F -10.8 °F 3.2 °F 67% 29.95 in 10.0 mi WNW 35.7 mph 46.0 mph N/A   Scattered Clouds
5:49 PM 10.4 °F -13.2 °F 1.4 °F 67% 29.97 in 10.0 mi WNW 35.7 mph 46.0 mph N/A   Scattered Clouds
6:09 PM 10.4 °F -11.4 °F 1.4 °F 67% 30.00 in 10.0 mi WNW 28.8 mph 40.3 mph N/A   Scattered Clouds
6:29 PM 8.6 °F -13.1 °F 1.4 °F 73% 30.01 in 10.0 mi WNW 26.5 mph 36.8 mph N/A   Clear
6:49 PM 8.6 °F -13.1 °F 1.4 °F 73% 30.03 in 7.0 mi WNW 26.5 mph 38.0 mph N/A   Scattered Clouds
7:09 PM 8.6 °F -12.3 °F 1.4 °F 73% 30.05 in 10.0 mi WNW 24.2 mph 35.7 mph N/A   Scattered Clouds
7:29 PM 6.8 °F -17.3 °F -0.4 °F 72% 30.06 in 10.0 mi WNW 32.2 mph 35.7 mph N/A   Clear
7:49 PM 6.8 °F -16.2 °F -0.4 °F 72% 30.07 in 10.0 mi WNW 28.8 mph 38.0 mph N/A   Clear
8:09 PM 6.8 °F -15.9 °F -0.4 °F 72% 30.09 in 7.0 mi WNW 27.6 mph 35.7 mph N/A   Scattered Clouds
8:29 PM 5.0 °F -17.9 °F -2.2 °F 72% 30.10 in 10.0 mi WNW 26.5 mph 34.5 mph N/A   Clear
8:49 PM 3.2 °F -20.3 °F -2.2 °F 78% 30.11 in 10.0 mi WNW 26.5 mph 33.4 mph N/A   Clear
9:09 PM 3.2 °F -19.0 °F -2.2 °F 78% 30.13 in 10.0 mi WNW 23.0 mph 34.5 mph N/A   Clear
9:29 PM 3.2 °F -19.9 °F -2.2 °F 78% 30.14 in 10.0 mi WNW 25.3 mph 31.1 mph N/A   Clear
9:49 PM 3.2 °F -16.5 °F -4.0 °F 72% 30.16 in 10.0 mi NW 17.3 mph 28.8 mph N/A   Clear
10:09 PM 1.4 °F -19.4 °F -4.0 °F 78% 30.17 in 10.0 mi WNW 18.4 mph 26.5 mph N/A   Clear
10:29 PM 1.4 °F -19.4 °F -4.0 °F 78% 30.18 in 10.0 mi WNW 18.4 mph 28.8 mph N/A   Clear
10:49 PM 1.4 °F -17.6 °F -4.0 °F 78% 30.19 in 10.0 mi WNW 15.0 mph 23.0 mph N/A   Clear
11:09 PM 1.4 °F -17.6 °F -4.0 °F 78% 30.19 in 7.0 mi NW 15.0 mph 19.6 mph N/A   Clear
11:28 PM 1.4 °F -17.6 °F -4.0 °F 78% 30.18 in 7.0 mi WNW 15.0 mph 18.4 mph N/A   Clear
11:49 PM 1.4 °F -17.6 °F -4.0 °F 78% 30.21 in 7.0 mi WNW 15.0 mph - N/A   Clear